Location: Namasale
(1.5000°N, 32.6167°E)
Time: 19:38:18
(UTC+00:00)

Vanguard 1 Rocket - Pass Details

Date: 27 April 2021
Orbit: 652 x 4224 km, 34.3° (Epoch: 10 May)

Event Time Altitude Azimuth Distance (km) Brightness Sun altitude
Rises 01:14:51 0° 222° (SW) 7,740 - -36.3°
Reaches altitude 10° 01:21:33 10° 211° (SSW) 7,091 - -34.7°
Exits shadow 01:24:28 14° 205° (SSW) 6,841 11.5 -34.1°
Maximum altitude 01:42:15 29° 157° (SSE) 5,874 11.4 -29.8°
Drops below altitude 10° 02:00:41 10° 104° (ESE) 6,470 12.5 -25.4°
Sets 02:06:09 0° 93° (E) 7,024 13.1 -24.1°
